This is the latest recevied weather packets stored in our database for station/object N1ORT. If no packets are shown the sender has not sent any weather packets the latest 10 day(s).
| Time | Temp. | Humidity | Pressure | Rain* | Wind** | Luminosity | Snow |
|---|---|---|---|---|---|---|---|
| 1777670111 | 16.67° C | 31% | 1007 hPa | 0 mm | - | 297 W/m² | - |
| 1777669809 | 16.11° C | 32% | 1007 hPa | 0 mm | - | 231 W/m² | - |
| 1777669505 | 16.11° C | 32% | 1007 hPa | 0 mm | - | 199 W/m² | - |
| 1777669202 | 16.11° C | 35% | 1006.8 hPa | 0 mm | - | 345 W/m² | - |
| 1777668898 | 15.56° C | 32% | 1006.7 hPa | 0 mm | - | 298 W/m² | - |
| 1777668596 | 16.11° C | 33% | 1006.7 hPa | 0 mm | - | 264 W/m² | - |
| 1777668291 | 16.11° C | 32% | 1007 hPa | 0 mm | - | 361 W/m² | - |
| 1777667988 | 16.11° C | 32% | 1006.7 hPa | 0 mm | - | 305 W/m² | - |
| 1777667685 | 17.22° C | 34% | 1007 hPa | 0 mm | - | 405 W/m² | - |
| 1777667383 | 16.67° C | 33% | 1006.7 hPa | 0 mm | - | 439 W/m² | - |
| 1777667079 | 16.67° C | 33% | 1006.6 hPa | 0 mm | - | 487 W/m² | - |
| 1777666775 | 15.56° C | 33% | 1006.5 hPa | 0 mm | - | 449 W/m² | - |
| 1777666473 | 16.67° C | 33% | 1006.7 hPa | 0 mm | - | 538 W/m² | - |
| 1777666170 | 16.67° C | 33% | 1006.6 hPa | 0 mm | - | 551 W/m² | - |
| 1777665866 | 16.67° C | 35% | 1006.8 hPa | 0 mm | - | 575 W/m² | - |
| 1777665564 | 15.56° C | 34% | 1006.9 hPa | 0 mm | - | 588 W/m² | - |
| 1777665261 | 16.67° C | 32% | 1006.8 hPa | 0 mm | - | 620 W/m² | - |
| 1777664956 | 16.11° C | 33% | 1006.8 hPa | 0 mm | - | 618 W/m² | - |
| 1777664652 | 16.11° C | 35% | 1006.7 hPa | 0 mm | - | 637 W/m² | - |
| 1777664348 | 16.11° C | 33% | 1007 hPa | 0 mm | - | 645 W/m² | - |
| 1777664047 | 16.67° C | 34% | 1006.9 hPa | 0 mm | - | 708 W/m² | - |
| 1777663744 | 17.22° C | 35% | 1006.8 hPa | 0 mm | - | 708 W/m² | - |
| 1777663441 | 16.67° C | 35% | 1006.9 hPa | 0 mm | - | 774 W/m² | - |
| 1777663138 | 16.11° C | 36% | 1006.9 hPa | 0 mm | - | 816 W/m² | - |
| 1777662835 | 16.11° C | 36% | 1007 hPa | 0 mm | - | 866 W/m² | - |
* Rain latest hour (hover to see other rain measurements)
** Current wind speed in m/s (hover to see current wind gust speed)